Weather History for KBHK - March, 2013

Change the Weather History Date:

Saturday, March 23, 2013

  Actual Average (KDIK) Record (KDIK)
Temperature  
Mean Temperature 11 °F 33 °F  
Max Temperature 19 °F 44 °F 74 °F (1963)
Min Temperature 1 °F 21 °F -15 °F (1965)
Degree Days  
Heating Degree Days 54 32  
Month to date heating degree days 843  
Since 1 July heating degree days 7137  
Cooling Degree Days 0 0  
Month to date cooling degree days 0  
Year to date cooling degree days 0  
Moisture  
Dew Point 7 °F    
Average Humidity 73    
Maximum Humidity 85    
Minimum Humidity 59    
Precipitation  
Precipitation 0.00 in 0.03 in 0.77 in (1950)
Month to date precipitation 0.46  
Year to date precipitation 1.09  
Sea Level Pressure  
Sea Level Pressure 30.21 in    
Wind  
Wind Speed 12 mph (WNW)    
Max Wind Speed 24 mph    
Max Gust Speed 32 mph    
Visibility 5 miles    
Events Snow    
T = Trace of Precipitation, MM = Missing Value Source: NWS Daily Summary

Daily Weather History Graph

Daily Weather History Graph

Search for Another Location

Airport or City:

Trip Planner

Search our weather history database for the weather conditions in past years. The results will help you decide how hot, cold, wet, or windy it might be!

Date:

Astronomy

Mar. 23, 2013 Rise Set
Actual Time 6:53 AM MDT 7:14 PM MDT
Civil Twilight 6:23 AM MDT 7:44 PM MDT
Nautical Twilight 5:48 AM MDT 8:19 PM MDT
Astronomical Twilight 5:11 AM MDT 8:56 PM MDT
Moon 3:33 PM MDT (3/23) 4:42 AM MDT (3/23)
Length of Visible Light 13h 20m
Length of Day
12h 20m
Waxing Gibbous, 85% of the Moon is Illuminated
Mar 23
Waxing Gibbous
Mar 27
Full
Apr 2
Last Quarter
Apr 10
New
Apr 18
First Quarter

Hourly Weather History & Observations

Time (MDT) Temp. Windchill Dew Point Humidity Pressure Visibility Wind Dir Wind Speed Gust Speed Precip Events Conditions
12:19 AM 5.0 °F -9.1 °F -0.4 °F 78% 30.08 in 8.0 mi West 9.2 mph - N/A   Mostly Cloudy
12:51 AM 7.0 °F -3.3 °F 1.0 °F 77% 30.21 in 4.0 mi West 5.8 mph - 0.00 in Snow Light Snow
1:30 AM 3.2 °F - -0.4 °F 85% 30.09 in 2.0 mi Calm Calm - 0.00 in Snow Light Snow
1:36 AM 5.0 °F -2.1 °F -0.4 °F 78% 30.09 in 1.8 mi West 3.5 mph - 0.00 in Snow Light Snow
1:41 AM 6.8 °F -0.1 °F -0.4 °F 72% 30.09 in 2.5 mi West 3.5 mph - 0.00 in Snow Light Snow
1:48 AM 6.8 °F -2.0 °F -0.4 °F 72% 30.09 in 3.0 mi West 4.6 mph - 0.00 in Snow Light Snow
1:51 AM 6.1 °F -2.8 °F -0.9 °F 73% 30.23 in 4.0 mi West 4.6 mph - 0.00 in Snow Light Snow
2:08 AM 6.8 °F -3.5 °F 1.4 °F 79% 30.09 in 2.5 mi West 5.8 mph - 0.00 in Snow Light Snow
2:19 AM 8.6 °F -1.3 °F 3.2 °F 79% 30.09 in 3.0 mi West 5.8 mph - 0.00 in Snow Light Snow
2:51 AM 12.0 °F -2.0 °F 6.1 °F 77% 30.22 in 8.0 mi West 11.5 mph - 0.00 in   Overcast
3:23 AM 12.2 °F -1.8 °F 8.6 °F 85% 30.09 in 10.0 mi WNW 11.5 mph - N/A   Overcast
3:51 AM 12.9 °F -0.2 °F 7.0 °F 77% 30.23 in 6.0 mi WNW 10.4 mph - 0.00 in Snow Light Snow
4:37 AM 12.2 °F 0.7 °F 6.8 °F 79% 30.11 in 10.0 mi WNW 8.1 mph - 0.00 in   Overcast
4:51 AM 12.9 °F 0.7 °F 7.0 °F 77% 30.24 in 10.0 mi WNW 9.2 mph - 0.00 in   Overcast
5:10 AM 12.2 °F -0.2 °F 8.6 °F 85% 30.11 in 10.0 mi WNW 9.2 mph - N/A   Overcast
5:51 AM 12.9 °F -0.9 °F 7.0 °F 77% 30.26 in 10.0 mi WNW 11.5 mph - N/A   Mostly Cloudy
6:51 AM 10.0 °F -5.2 °F 3.9 °F 76% 30.29 in 10.0 mi WNW 12.7 mph - N/A   Overcast
7:08 AM 10.4 °F -4.8 °F 3.2 °F 73% 30.14 in 10.0 mi WNW 12.7 mph - N/A   Overcast
7:26 AM 10.4 °F -6.0 °F 5.0 °F 79% 30.14 in 10.0 mi WNW 15.0 mph - N/A   Overcast
7:51 AM 12.0 °F -2.0 °F 6.1 °F 77% 30.30 in 10.0 mi WNW 11.5 mph - N/A   Overcast
8:27 AM 12.2 °F -4.3 °F 6.8 °F 79% 30.15 in 10.0 mi WNW 16.1 mph - N/A   Overcast
9:51 AM 15.1 °F -2.0 °F 7.0 °F 70% 30.32 in 7.0 mi WNW 19.6 mph 24.2 mph 0.00 in   Overcast
10:51 AM 17.1 °F 2.5 °F 9.0 °F 71% 30.34 in 3.0 mi WNW 15.0 mph - 0.00 in Snow Light Snow
11:05 AM 17.6 °F 3.7 °F 10.4 °F 73% 30.18 in 2.5 mi WNW 13.8 mph - 0.00 in Snow Light Snow
11:10 AM 17.6 °F 2.7 °F 8.6 °F 68% 30.18 in 3.0 mi NW 16.1 mph - 0.00 in Snow Light Snow
11:15 AM 17.6 °F 3.2 °F 8.6 °F 68% 30.18 in 2.5 mi NW 15.0 mph - 0.00 in Snow Light Snow
11:32 AM 19.4 °F 5.5 °F 10.4 °F 68% 30.18 in 2.0 mi WNW 15.0 mph - 0.00 in Snow Light Snow
11:37 AM 19.4 °F 5.0 °F 10.4 °F 68% 30.17 in 1.8 mi NW 16.1 mph 21.9 mph 0.00 in Snow Light Snow
11:45 AM 17.6 °F 0.5 °F 8.6 °F 68% 30.17 in 3.0 mi WNW 21.9 mph 28.8 mph 0.00 in Snow Light Snow
11:56 AM 19.4 °F 4.1 °F 8.6 °F 63% 30.17 in 6.0 mi WNW 18.4 mph 28.8 mph 0.00 in Snow Light Snow
12:10 PM 17.6 °F 0.9 °F 10.4 °F 73% 30.17 in 1.8 mi NW 20.7 mph 27.6 mph 0.00 in Snow Light Snow
12:23 PM 19.4 °F 4.1 °F 10.4 °F 68% 30.17 in 3.0 mi NW 18.4 mph - 0.00 in Snow Light Snow
12:37 PM 19.4 °F 2.1 °F 8.6 °F 63% 30.17 in 1.8 mi WNW 24.2 mph 31.1 mph 0.00 in Snow Light Snow
12:43 PM 19.4 °F 2.8 °F 8.6 °F 63% 30.17 in 3.0 mi WNW 21.9 mph 31.1 mph 0.00 in Snow Light Snow
12:51 PM 19.0 °F 2.4 °F 7.0 °F 59% 30.32 in 9.0 mi NW 21.9 mph 32.2 mph 0.00 in   Mostly Cloudy
1:41 PM 19.4 °F 4.5 °F 8.6 °F 63% 30.18 in 6.0 mi WNW 17.3 mph - 0.00 in Snow Light Snow
1:45 PM 19.4 °F 2.8 °F 8.6 °F 63% 30.18 in 2.5 mi NW 21.9 mph 27.6 mph 0.00 in Snow Light Snow
1:51 PM 18.0 °F 1.7 °F 10.0 °F 71% 30.33 in 1.5 mi WNW 19.6 mph 27.6 mph 0.00 in Snow Light Snow
2:02 PM 19.4 °F 3.6 °F 10.4 °F 68% 30.17 in 2.5 mi WNW 19.6 mph 25.3 mph 0.00 in Snow Light Snow
2:11 PM 17.6 °F 1.7 °F 10.4 °F 73% 30.17 in 1.5 mi WNW 18.4 mph 31.1 mph 0.00 in Snow Light Snow
2:19 PM 19.4 °F 4.1 °F 8.6 °F 63% 30.17 in 3.0 mi WNW 18.4 mph 27.6 mph 0.00 in Snow Light Snow
2:26 PM 17.6 °F 0.9 °F 8.6 °F 68% 30.17 in 6.0 mi WNW 20.7 mph 29.9 mph 0.00 in Snow Light Snow
2:51 PM 18.0 °F 1.7 °F 9.0 °F 68% 30.32 in 3.0 mi WNW 19.6 mph 27.6 mph 0.00 in Snow Light Snow
3:06 PM 17.6 °F 2.2 °F 10.4 °F 73% 30.17 in 2.0 mi WNW 17.3 mph - 0.00 in Snow Light Snow
3:22 PM 19.4 °F 3.6 °F 10.4 °F 68% 30.17 in 3.0 mi NW 19.6 mph 26.5 mph 0.00 in Snow Light Snow
3:47 PM 17.6 °F 0.9 °F 8.6 °F 68% 30.17 in 1.8 mi WNW 20.7 mph - 0.00 in Snow Light Snow
3:51 PM 18.0 °F 1.7 °F 10.0 °F 71% 30.32 in 1.5 mi WNW 19.6 mph 26.5 mph 0.00 in Snow Light Snow
3:57 PM 17.6 °F 2.2 °F 10.4 °F 73% 30.18 in 3.0 mi WNW 17.3 mph 25.3 mph 0.00 in Snow Light Snow
4:04 PM 19.4 °F 3.6 °F 10.4 °F 68% 30.18 in 2.5 mi WNW 19.6 mph - 0.00 in Snow Light Snow
4:17 PM 17.6 °F 3.7 °F 10.4 °F 73% 30.18 in 3.0 mi NW 13.8 mph 26.5 mph 0.00 in Snow Light Snow
4:22 PM 17.6 °F 1.7 °F 10.4 °F 73% 30.18 in 2.0 mi NW 18.4 mph 24.2 mph 0.00 in Snow Light Snow
4:51 PM 18.0 °F 2.6 °F 9.0 °F 68% 30.32 in 4.0 mi WNW 17.3 mph 24.2 mph 0.00 in Snow Light Snow
5:51 PM 17.1 °F 2.5 °F 8.1 °F 68% 30.33 in 6.0 mi WNW 15.0 mph - 0.00 in Snow Light Snow
6:10 PM 17.6 °F 5.0 °F 8.6 °F 68% 30.19 in 2.0 mi WNW 11.5 mph - 0.00 in Snow Light Snow
6:16 PM 17.6 °F 6.4 °F 10.4 °F 73% 30.19 in 1.5 mi NW 9.2 mph - 0.00 in Snow Light Snow
6:36 PM 17.6 °F 5.7 °F 10.4 °F 73% 30.19 in 2.5 mi NW 10.4 mph - 0.00 in Snow Light Snow
6:51 PM 17.1 °F 3.6 °F 9.0 °F 71% 30.34 in 2.0 mi NW 12.7 mph - 0.00 in Snow Light Snow
7:17 PM 15.8 °F 3.4 °F 8.6 °F 73% 30.19 in 4.0 mi WNW 10.4 mph - 0.00 in Snow Light Snow
7:51 PM 12.9 °F 2.6 °F 7.0 °F 77% 30.35 in 10.0 mi WNW 6.9 mph - 0.00 in   Scattered Clouds
8:51 PM 9.0 °F -3.2 °F 5.0 °F 84% 30.36 in 10.0 mi WNW 8.1 mph - N/A   Mostly Cloudy
9:16 PM 10.4 °F -2.4 °F 3.2 °F 73% 30.20 in 10.0 mi WNW 9.2 mph - N/A   Scattered Clouds
9:51 PM 7.0 °F -6.6 °F 1.9 °F 80% 30.38 in 10.0 mi WNW 9.2 mph - N/A   Clear
10:19 PM 8.6 °F -6.3 °F 3.2 °F 79% 30.21 in 10.0 mi WNW 11.5 mph - N/A   Mostly Cloudy
10:31 PM 8.6 °F -5.5 °F 1.4 °F 73% 30.20 in 10.0 mi WNW 10.4 mph - N/A   Scattered Clouds
10:51 PM 6.1 °F -7.8 °F 1.0 °F 80% 30.36 in 10.0 mi WNW 9.2 mph - N/A   Partly Cloudy
11:51 PM 1.9 °F -14.7 °F -2.9 °F 80% 30.37 in 9.0 mi West 11.5 mph - N/A   Clear